Tracking 19170 objects as of 22-May-2018
HD Live streaming from Space Station
objects crossing your sky now

ASTRA 2D

Track ASTRA 2D now!
ASTRA 2D is classified as:


NORAD ID: 26638
Int'l Code: 2000-081A
Perigee: 35,836.8 km
Apogee: 35,853.6 km
Inclination: 4.3 °
Period: 1,438.7 minutes
Semi major axis: 42216 km
RCS: 0.6797 m2 (medium)
Launch date: December 20, 2000
Source: SOCIETE EUROPEENNE DES SATELLITES (SES)
Launch site: FRENCH GUIANA (FRGUI)

Direct-to-home; broadcasting, multimedia; 16 Ku-band; UK and Ireland.
aabbcc
Your satellite tracking list
Your tracking list is empty




NASA's NSSDC Master Catalog

Two Line Element Set (TLE):
1 26638U 00081A   18142.40754657 +.00000130 +00000-0 +00000-0 0  9992
2 26638 004.3061 068.4823 0001988 309.0987 050.6547 01.00088639023359
Source of the keplerian elements: AFSPC